| time (UTC) | temp C | wind direction | speed KPH | gust KPH | rain 1hr cm | rain 24hr cm | rain mn cm | humidity % | barometer mb |
| 20260510033030 | 10 | 208 | 12.9 | 0.0 | 0.00 | 0.00 | 0.61 | 78 | 1003.6 |
| 20260510030038 | 10 | 199 | 12.9 | 0.0 | 0.00 | 0.00 | 0.61 | 78 | 1003.4 |
| 20260510024538 | 10 | 206 | 9.7 | 0.0 | 0.00 | 0.00 | 0.61 | 78 | 1003.0 |
| 20260510013052 | 14 | 165 | 16.1 | 0.0 | 0.00 | 0.00 | 0.00 | 76 | 1001.5 |
| 20260510011548 | 14 | 120 | 16.1 | 0.0 | 0.00 | 0.00 | 0.00 | 75 | 1001.6 |
| 20260510010047 | 14 | 153 | 14.5 | 0.0 | 0.00 | 0.00 | 0.00 | 74 | 1001.5 |
| 20260510003100 | 15 | 144 | 11.3 | 0.0 | 0.00 | 0.00 | 0.00 | 72 | 1001.2 |
| 20260510001548 | 15 | 155 | 11.3 | 0.0 | 0.00 | 0.00 | 0.00 | 71 | 1001.3 |
| 20260510000047 | 15 | 153 | 14.5 | 0.0 | 0.00 | 0.00 | 0.00 | 71 | 1001.3 |
| 20260509233044 | 15 | 153 | 16.1 | 0.0 | 0.00 | 0.00 | 0.00 | 69 | 1001.8 |
| 20260509231543 | 15 | 163 | 12.9 | 0.0 | 0.00 | 0.00 | 0.00 | 69 | 1002.0 |
| 20260509230048 | 15 | 140 | 11.3 | 0.0 | 0.00 | 0.00 | 0.00 | 68 | 1002.1 |
| 20260509223051 | 16 | 174 | 12.9 | 0.0 | 0.00 | 0.00 | 0.00 | 66 | 1002.3 |
| 20260509221545 | 15 | 181 | 12.9 | 0.0 | 0.00 | 0.00 | 0.00 | 67 | 1002.1 |
| 20260509220043 | 15 | 134 | 9.7 | 0.0 | 0.00 | 0.00 | 0.00 | 68 | 1002.0 |
| 20260509213043 | 15 | 174 | 11.3 | 0.0 | 0.00 | 0.00 | 0.00 | 67 | 1002.2 |
| 20260509211541 | 15 | 180 | 12.9 | 0.0 | 0.00 | 0.00 | 0.00 | 65 | 1002.5 |
| 20260509210044 | 15 | 159 | 12.9 | 0.0 | 0.00 | 0.00 | 0.00 | 66 | 1002.7 |
| 20260509203051 | 15 | 184 | 14.5 | 0.0 | 0.00 | 0.00 | 0.00 | 66 | 1002.7 |
| 20260509201537 | 15 | 180 | 14.5 | 0.0 | 0.00 | 0.00 | 0.00 | 67 | 1003.2 |
| 20260509200037 | 14 | 201 | 16.1 | 0.0 | 0.00 | 0.00 | 0.00 | 68 | 1003.3 |
| 20260509193036 | 15 | 203 | 17.7 | 0.0 | 0.00 | 0.00 | 0.00 | 66 | 1003.5 |
| 20260509191534 | 15 | 207 | 16.1 | 0.0 | 0.00 | 0.00 | 0.00 | 65 | 1003.8 |
| 20260509190033 | 15 | 182 | 19.3 | 0.0 | 0.00 | 0.00 | 0.00 | 65 | 1003.7 |
| 20260509183029 | 15 | 190 | 17.7 | 0.0 | 0.00 | 0.00 | 0.00 | 62 | 1004.1 |
| 20260509181528 | 15 | 196 | 14.5 | 0.0 | 0.00 | 0.00 | 0.00 | 61 | 1004.3 |
| 20260509180030 | 14 | 200 | 11.3 | 0.0 | 0.00 | 0.00 | 0.00 | 64 | 1004.3 |
| 20260509173026 | 14 | 175 | 11.3 | 0.0 | 0.00 | 0.00 | 0.00 | 67 | 1004.6 |
| 20260509171523 | 13 | 182 | 12.9 | 0.0 | 0.00 | 0.00 | 0.00 | 67 | 1004.8 |
| 20260509170036 | 13 | 126 | 12.9 | 0.0 | 0.00 | 0.00 | 0.00 | 67 | 1004.9 |
| 20260509163025 | 13 | 176 | 11.3 | 0.0 | 0.00 | 0.00 | 0.00 | 66 | 1005.3 |
| 20260509161515 | 13 | 190 | 9.7 | 0.0 | 0.00 | 0.00 | 0.00 | 66 | 1005.5 |
| 20260509160013 | 13 | 190 | 12.9 | 0.0 | 0.00 | 0.00 | 0.00 | 66 | 1005.8 |
| 20260509153017 | 13 | 179 | 12.9 | 0.0 | 0.00 | 0.00 | 0.00 | 65 | 1006.4 |
| 20260509151510 | 13 | 237 | 12.9 | 0.0 | 0.00 | 0.00 | 0.00 | 64 | 1006.5 |
| 20260509150008 | 13 | 190 | 12.9 | 0.0 | 0.00 | 0.00 | 0.00 | 63 | 1006.6 |
| 20260509143012 | 13 | 155 | 8.0 | 0.0 | 0.00 | 0.00 | 0.00 | 56 | 1006.7 |
| 20260509141515 | 13 | 159 | 8.0 | 0.0 | 0.00 | 0.00 | 0.00 | 55 | 1006.8 |
| 20260509140006 | 13 | 173 | 4.8 | 0.0 | 0.00 | 0.00 | 0.00 | 54 | 1006.9 |
| 20260509133003 | 12 | 44 | 3.2 | 0.0 | 0.00 | 0.00 | 0.00 | 57 | 1007.1 |
| 20260509131505 | 12 | 126 | 8.0 | 0.0 | 0.00 | 0.00 | 0.00 | 53 | 1007.4 |
| 20260509130115 | 11 | 119 | 6.4 | 0.0 | 0.00 | 0.00 | 0.00 | 53 | 1007.3 |
| 20260509123101 | 11 | 134 | 3.2 | 0.0 | 0.00 | 0.00 | 0.00 | 53 | 1007.4 |
| 20260509121558 | 10 | 95 | 4.8 | 0.0 | 0.00 | 0.00 | 0.00 | 54 | 1007.6 |
| 20260509120059 | 10 | 54 | 1.6 | 0.0 | 0.00 | 0.00 | 0.00 | 57 | 1007.7 |
| 20260509113057 | 8 | 103 | 6.4 | 0.0 | 0.00 | 0.00 | 0.00 | 59 | 1007.7 |
| 20260509111604 | 8 | 136 | 4.8 | 0.0 | 0.00 | 0.00 | 0.00 | 59 | 1007.7 |
| 20260509110055 | 7 | 144 | 6.4 | 0.0 | 0.00 | 0.00 | 0.00 | 60 | 1007.7 |
| 20260509103106 | 7 | 151 | 8.0 | 0.0 | 0.00 | 0.00 | 0.00 | 62 | 1007.2 |
| 20260509101555 | 6 | 146 | 8.0 | 0.0 | 0.00 | 0.00 | 0.00 | 63 | 1007.1 |
| 20260509100053 | 6 | 155 | 8.0 | 0.0 | 0.00 | 0.00 | 0.00 | 65 | 1007.2 |
| 20260509093056 | 6 | 126 | 8.0 | 0.0 | 0.00 | 0.00 | 0.00 | 66 | 1007.1 |
| 20260509091552 | 6 | 146 | 6.4 | 0.0 | 0.00 | 0.00 | 0.00 | 67 | 1007.5 |
| 20260509090056 | 6 | 154 | 6.4 | 0.0 | 0.00 | 0.00 | 0.00 | 67 | 1007.6 |
| 20260509083052 | 6 | 147 | 8.0 | 0.0 | 0.00 | 0.00 | 0.00 | 66 | 1007.8 |
| 20260509081554 | 6 | 153 | 9.7 | 0.0 | 0.00 | 0.00 | 0.00 | 65 | 1007.9 |
| 20260509073052 | 7 | 174 | 14.5 | 0.0 | 0.00 | 0.00 | 0.00 | 62 | 1008.1 |
| 20260509071602 | 7 | 161 | 11.3 | 0.0 | 0.00 | 0.00 | 0.00 | 64 | 1008.2 |
| 20260509070053 | 6 | 156 | 9.7 | 0.0 | 0.00 | 0.00 | 0.00 | 66 | 1008.2 |
| 20260509063105 | 6 | 144 | 8.0 | 0.0 | 0.00 | 0.00 | 0.00 | 70 | 1008.4 |
| 20260509061611 | 6 | 153 | 4.8 | 0.0 | 0.00 | 0.00 | 0.00 | 71 | 1008.5 |
| 20260509060056 | 6 | 147 | 1.6 | 0.0 | 0.00 | 0.00 | 0.00 | 71 | 1008.7 |
| 20260509053045 | 6 | 153 | 4.8 | 0.0 | 0.00 | 0.00 | 0.00 | 71 | 1009.0 |
| 20260509051545 | 6 | 167 | 4.8 | 0.0 | 0.00 | 0.00 | 0.00 | 72 | 1009.0 |
| 20260509050043 | 6 | 163 | 4.8 | 0.0 | 0.00 | 0.00 | 0.00 | 72 | 1009.0 |
| 20260509043047 | 6 | 210 | 4.8 | 0.0 | 0.00 | 0.00 | 0.00 | 72 | 1009.2 |
| 20260509041545 | 7 | 219 | 8.0 | 0.0 | 0.00 | 0.00 | 0.00 | 72 | 1009.2 |
| 20260509040043 | 6 | 193 | 9.7 | 0.0 | 0.00 | 0.00 | 0.00 | 72 | 1009.2 |